STARLINK-2042 (47658 NORAD) Tracking and Keplerian Element Data

This shows tracking and keplerian element data for the satellite.

Feedback or suggestion? Click here.




ElementValue
Catalog47658
NameSTARLINK-2042
Epoch Orbit177
Epoch Day59.91667824
Epoch Year2021
RAAN38.6843
Inclination53.0516
Eccentricity0.0001133
Argument of Perigee77.7361
Mean Anonmoly131.8951
Mean Motion15.72676608
Decay Rate-0.00970821
L11 47658U 21012AQ 21059.91667824 -.00970821 00000-0 -77931-2 0 9994
L22 47658 53.0516 38.6843 0001133 77.7361 131.8951 15.72676608 1774

Live tracking and technical data element details for STARLINK-2042 (NORAD 47658). STARLINK-2042 can be tracked NOW for your location showing map with azimuth and elevation plus other details from your city location.

Track the satellite on the map from your city or location and see movement details for azimuth, elevation, latitude, longitude, range, height, and movement on the map or in text.







IsCatalogInMostPopularTable: catalog: 47658, numindb: 4
Update: records affected: 1



GetName: 47658 STARLINK-2042

Hit Count: updated at: Mon, 01 Mar 2021 16:33:24 GMT